Regional Weather Roundup
Issued by NWS

Home | Current Version | Previous Version | Graphics & Text | Print | Product List | Glossary On
Versions: 1 2 3 4 5 6 7 8 9 10 11 12 13 14 15 16 17 18 19 20 21 22 23 24 25 26 27 28 29 30 31 32 33 34 35 36 37 38 39 40 41 42 43 44 45 46 47 48 49 50
000
ASUS43 KTOP 031508
RWRKS

WEATHER ROUNDUP FOR KANSAS
NATIONAL WEATHER SERVICE GOODLAND KS
1000 AM CDT WED JUN 03 2015

NOTE:  "FAIR" INDICATES FEW OR NO CLOUDS BELOW 12,000 FEET WITH NO
SIGNIFICANT WEATHER AND/OR OBSTRUCTIONS TO VISIBILITY.

KSZ001>006-013>018-027>032-041>047-031600-
NORTHWEST KANSAS

CITY           SKY/WX    TMP DP  RH WIND       PRES   REMARKS
GOODLAND       CLOUDY    64  59  83 E20       29.92R
HAYS           CLOUDY    66  57  72 E25G32    29.88R
HILL CITY      CLOUDY    68  58  70 E16G30    29.88F
RUSSELL        CLOUDY    67  60  78 E30G37    29.87F
$$

KSZ061>065-074>080-084>089-031600-
SOUTHWEST KANSAS

CITY           SKY/WX    TMP DP  RH WIND       PRES   REMARKS
DODGE CITY     MOSUNNY   77  63  61 S8        29.84R
ELKHART          N/A     80  47  31 W12         N/A
GARDEN CITY    SUNNY     73  59  61 S3        29.82F
GREAT BEND     PTSUNNY   72  64  78 E14       29.88S
LIBERAL        SUNNY     77  64  65 SW15      29.84S
PRATT          SUNNY     73  63  68 S16G23    29.84S
$$

KSZ066>073-081>083-090>101-031600-
SOUTHEAST KANSAS

CITY           SKY/WX    TMP DP  RH WIND       PRES   REMARKS
CHANUTE        CLOUDY    75  66  73 S10       29.96R
COFFEYVILLE    CLOUDY    75  66  73 S16G23    29.93F
HUTCHINSON     MOSUNNY   78  65  63 S8        29.89R
MEDICINE LODGE   N/A     77  66  68 S14G21    29.83F
NEWTON         MOSUNNY   77  63  61 S18       29.90F
PARSONS        PTSUNNY   76  67  73 S13G22    29.96S
WICHITA INTL   PTSUNNY   78  65  63 S21       29.86F
WICHITA JABRA  MOSUNNY   76  65  68 S16G22    29.87F
WICHITA MCCONL MOSUNNY   76  65  68 SE17      29.88S
WINFIELD       MOSUNNY   77  66  68 S16G26    29.89F
$$

KSZ007>012-019>026-033>040-048>060-102>105-031600-
NORTHEAST KANSAS

CITY           SKY/WX    TMP DP  RH WIND       PRES   REMARKS
CONCORDIA      CLOUDY    64  61  90 SE13      29.90F
EMPORIA        MOSUNNY   75  66  73 S17       29.90F
LAWRENCE       CLOUDY    68  64  87 NE8       29.96R
MANHATTAN      LGT RAIN  65  63  93 E6        29.93F
MARYSVILLE     CLOUDY    63  61  94 E5        29.91F
OLATHE IND     CLOUDY    68  65  90 N10       29.98R
OLATHE EXE     CLOUDY    69  64  84 N9        29.97R
SALINA         CLOUDY    67  60  78 NE16G24   29.93S
TOPEKA BILLARD CLOUDY    69  66  90 E9        29.93F
TOPEKA FORBES  CLOUDY    72  66  81 NE5       29.93F
$$



USA.gov is the U.S. government's official web portal to all federal, state and local government web resources and services.